Theta_e
346 346 344 344 344 344 344 344 345 345 347 348 349 350 350 349 349 350 352 354 350 342 341 346 347 346 345 346 347 348 347 348 349 350 351 352 355 355 354 354 354 354 355 354 354 355 354 353 352 353 352 347 345 344 341 342 341 343 343 341 347 350 349
346 346 345 344 344 344 344 344 345 346 347 348 349 349 349 349 349 350 352 354 351 344 340 344 346 346 346 346 346 346 347 349 350 351 353 353 352 353 354 355 355 354 354 355 355 355 353 351 350 351 350 347 346 343 341 343 341 342 346 342 342 346 346
347 347 346 346 346 345 344 345 345 346 347 349 349 348 348 349 349 351 352 353 353 348 344 344 344 345 347 347 345 344 345 350 351 350 353 354 352 353 354 354 355 354 354 355 355 354 352 349 348 346 346 347 349 345 341 343 342 341 344 343 342 345 343
347 347 346 346 346 346 345 345 345 347 347 348 348 347 347 348 348 350 351 351 352 350 349 347 345 347 349 349 348 347 344 348 353 354 355 355 354 354 354 353 353 354 355 354 354 354 354 352 348 343 341 344 349 347 342 343 344 342 341 341 345 348 345
347 347 346 346 346 346 345 345 345 346 346 347 347 346 346 346 347 349 350 349 349 349 350 349 347 348 349 350 351 351 349 349 352 355 355 355 355 355 355 354 353 353 355 354 354 354 353 353 352 348 342 341 345 348 346 344 344 343 341 340 345 350 350
350 348 348 347 347 346 346 345 345 345 346 345 346 346 345 345 346 347 348 347 347 348 350 350 349 349 349 349 350 352 353 351 350 352 355 357 356 355 355 355 354 353 353 353 354 353 351 351 354 353 348 345 348 351 351 349 348 349 346 341 343 349 353
352 352 350 348 347 345 345 345 345 345 345 345 346 346 345 344 345 346 346 347 347 347 349 349 348 349 349 350 349 350 352 352 350 351 354 356 356 355 355 355 354 354 354 353 354 354 353 352 354 355 353 352 352 353 355 353 351 353 350 343 343 345 349
354 353 352 351 351 347 345 346 345 345 345 345 346 346 345 345 344 345 346 347 347 346 348 348 347 349 349 349 350 350 350 350 351 351 353 355 355 355 356 355 355 355 354 354 354 354 355 354 354 355 354 355 355 354 357 355 350 352 354 351 347 345 348
353 352 353 353 351 348 346 347 347 346 346 345 346 346 345 345 344 345 346 347 348 347 347 347 347 348 350 350 350 350 349 349 350 351 351 353 354 354 354 355 355 354 355 355 354 354 355 354 354 355 354 355 356 354 356 354 349 352 357 354 349 348 351
354 354 355 355 352 348 347 348 349 347 346 345 346 347 347 345 344 345 346 347 348 348 348 347 347 347 349 351 350 349 349 349 348 349 350 351 352 353 353 353 354 354 355 355 354 354 354 354 355 356 352 353 355 351 349 350 349 352 356 354 351 349 349
356 357 357 356 354 350 348 351 351 348 346 346 347 348 349 347 345 344 346 348 350 350 349 348 347 349 350 351 351 349 349 349 347 347 347 347 348 350 351 352 352 353 353 353 352 352 353 353 355 356 354 353 355 352 348 348 349 351 354 356 355 353 352
356 357 356 357 357 355 353 352 350 349 348 348 350 352 352 349 347 347 347 348 351 354 353 350 348 350 350 350 351 350 349 349 347 346 346 345 345 345 347 349 350 352 352 352 352 352 352 353 354 356 356 355 356 356 352 349 351 352 351 354 356 355 356
356 356 355 356 357 357 356 352 349 348 349 351 353 355 355 353 352 351 351 352 355 358 359 355 352 350 347 347 350 350 350 349 348 347 346 344 344 344 344 345 347 348 349 349 350 351 352 352 353 354 356 356 356 357 355 353 355 353 347 350 354 356 357
355 355 354 355 355 356 357 354 351 348 347 348 349 351 354 356 356 356 356 357 358 360 359 357 356 354 348 347 351 350 348 350 350 348 347 345 344 344 344 344 344 345 346 346 347 349 350 351 352 352 354 355 354 355 356 355 356 354 348 348 353 354 354
354 354 354 354 354 354 355 355 354 352 349 347 345 345 348 352 354 356 357 358 357 357 358 356 355 353 348 350 354 352 348 348 350 349 349 348 346 346 346 345 345 344 345 345 345 346 347 348 350 351 352 353 353 353 354 354 355 355 353 352 352 349 348
353 353 353 354 354 354 354 354 355 355 354 352 349 346 344 345 347 349 352 353 354 355 356 354 351 349 347 349 354 353 348 348 349 347 347 349 349 349 348 347 346 346 346 346 345 346 347 347 347 348 350 351 352 352 353 353 353 352 351 352 351 348 346
352 353 353 354 354 354 354 354 354 354 355 355 353 350 346 345 346 346 347 350 352 354 353 351 350 351 349 349 354 355 351 349 351 348 345 347 349 350 351 350 349 349 349 349 349 348 349 349 348 348 349 350 351 351 352 352 351 350 349 350 350 347 345
352 352 353 353 354 354 354 354 354 354 354 354 354 353 351 350 350 349 349 350 352 353 351 347 347 351 351 351 354 357 354 351 352 350 346 345 346 348 350 351 351 350 350 352 353 352 351 351 351 350 349 349 349 349 349 349 349 349 349 350 350 348 346
352 352 352 351 352 352 353 353 354 354 354 354 354 354 353 353 353 352 352 352 352 352 351 347 345 348 350 351 354 355 353 351 350 348 347 346 348 349 349 348 348 348 347 349 350 351 351 352 351 350 349 348 348 347 347 347 347 347 347 348 349 348 345
350 350 350 350 350 350 351 351 351 351 352 352 352 353 352 352 353 353 354 354 353 352 352 351 349 347 344 346 351 352 352 352 351 349 349 350 350 350 348 346 347 347 347 347 346 347 348 350 352 352 350 348 348 349 348 348 347 347 346 346 345 343 341
349 349 348 347 348 348 348 348 349 349 350 350 350 350 350 350 351 352 353 353 353 353 353 352 352 350 346 346 350 351 351 352 351 351 352 351 350 349 347 347 348 347 349 349 348 348 348 348 352 353 351 349 349 351 350 348 347 346 344 343 342 339 337
348 348 347 346 345 346 346 346 346 347 347 347 347 347 347 347 348 348 349 350 351 352 353 353 353 352 351 351 351 351 350 350 349 349 349 349 348 346 346 347 346 346 347 347 348 351 351 350 352 354 353 352 353 353 349 344 344 345 342 342 343 342 341
347 346 345 344 344 344 345 345 345 345 344 344 344 345 345 345 345 345 346 347 348 350 351 352 352 352 353 352 351 350 350 349 349 348 347 346 346 346 347 347 346 345 344 344 345 349 351 352 354 353 352 352 353 352 347 343 343 344 344 345 348 348 348
344 344 344 343 343 343 343 344 344 344 343 343 343 343 344 344 344 344 345 345 346 347 348 348 349 350 351 351 350 351 350 350 350 349 348 348 348 348 349 349 347 345 344 344 345 347 348 351 353 352 351 351 351 350 346 344 345 346 347 349 351 352 352
342 342 342 343 343 342 342 342 342 342 342 342 342 342 343 343 343 343 344 344 345 346 346 346 347 348 348 349 349 349 349 350 349 348 348 348 349 349 350 349 347 346 346 347 347 348 349 350 351 351 350 350 350 349 347 346 347 348 349 351 351 351 351
341 341 341 341 341 341 341 340 340 341 341 341 341 341 341 342 342 342 343 343 344 344 344 344 345 345 345 346 346 347 347 348 348 348 347 348 348 348 348 348 347 347 348 348 348 349 349 349 349 350 350 349 349 349 348 348 349 349 349 349 349 349 349
339 340 339 338 338 338 338 338 339 339 339 339 339 339 340 340 341 342 342 342 342 342 342 342 343 343 343 343 344 344 344 344 344 344 345 345 345 345 345 346 346 346 346 347 346 347 347 346 346 348 349 349 348 348 347 347 348 347 346 346 346 347 347
337 337 336 336 336 336 336 336 336 335 335 335 336 336 338 339 339 341 342 341 340 340 340 340 340 340 340 341 342 342 343 343 342 342 342 343 342 342 342 342 343 343 344 344 343 344 344 344 344 345 346 345 345 344 345 345 344 343 342 342 342 343 344
336 335 335 334 334 334 333 333 333 332 332 332 333 334 335 336 336 338 339 338 338 338 337 336 337 337 337 338 338 339 339 339 339 339 339 339 338 336 336 336 338 338 339 339 338 339 339 340 340 340 341 340 339 338 338 337 336 335 335 334 335 336 337
334 333 333 332 332 332 332 331 331 330 330 330 331 332 333 333 334 335 335 335 335 335 331 330 331 331 330 330 333 335 336 337 337 336 335 333 332 331 330 330 330 330 330 330 330 330 331 331 331 331 331 331 330 330 329 328 327 327 327 328 328 328 328
333 332 332 331 330 330 331 330 329 329 330 330 329 330 331 332 332 333 333 332 333 332 329 326 326 325 324 325 328 330 331 333 333 333 332 330 328 326 325 326 326 324 325 325 323 322 323 324 323 322 322 322 321 322 322 323 322 322 322 323 324 324 324
333 332 331 330 329 329 330 329 328 327 327 328 328 328 328 329 329 330 331 331 331 331 330 330 329 327 326 328 329 328 328 328 328 328 328 327 325 323 323 325 326 326 328 328 325 323 325 325 322 319 319 320 319 320 320 320 320 320 320 321 322 323 322
332 331 330 330 329 329 328 328 327 326 326 326 327 327 327 327 327 327 328 329 329 329 330 331 331 329 329 329 329 328 328 328 326 326 325 325 324 322 321 320 320 323 327 328 327 327 329 329 326 325 325 325 324 325 324 323 324 324 321 319 319 318 317
330 330 329 328 328 327 327 327 326 326 326 326 326 326 326 326 326 326 326 327 328 328 329 330 329 329 328 327 327 327 327 327 327 326 326 326 325 323 322 321 320 319 320 322 323 325 328 330 329 329 328 327 327 327 327 326 326 323 318 316 314 313 313
330 328 327 326 326 325 325 325 325 324 324 324 324 325 325 324 324 324 325 326 327 328 329 328 328 328 327 326 326 326 326 326 327 326 326 327 324 321 321 322 320 316 315 316 317 321 325 328 328 328 327 327 327 327 326 326 324 319 315 314 313 312 312
327 327 326 325 324 320 319 320 322 322 322 323 323 323 324 324 324 324 324 325 325 327 328 328 327 327 327 326 326 325 325 325 325 324 324 325 323 320 318 318 317 315 315 316 315 318 322 325 326 326 325 326 326 325 326 326 322 316 314 313 312 312 311
325 325 324 323 321 318 315 317 319 319 319 320 322 322 322 323 323 324 324 324 324 325 327 327 327 327 327 326 326 325 324 324 324 324 324 324 322 321 318 317 317 317 316 316 315 317 319 321 322 322 321 320 321 322 323 323 318 314 312 312 311 311 310
324 324 322 320 318 317 316 317 317 315 314 316 319 321 321 321 321 322 323 324 325 325 325 326 326 326 325 326 326 325 325 325 325 325 324 324 323 322 321 319 318 318 317 317 317 317 317 317 317 317 316 316 316 316 317 316 314 312 311 311 310 310 310
Wind_Speed
26 25 25 24 25 25 24 24 23 23 22 21 21 20 19 18 18 17 18 19 19 19 18 17 16 15 15 15 14 14 14 13 12 11 11 10 10 9 9 9 9 9 8 7 7 8 8 9 9 8 8 7 7 7 7 6 6 6 5 6 6 4 4
27 26 26 25 25 25 24 25 24 22 22 22 21 21 19 19 18 18 18 19 19 19 19 18 17 16 15 15 15 15 15 13 13 12 11 11 12 11 9 8 8 9 9 8 7 8 9 10 10 10 9 8 7 7 7 6 7 6 5 6 6 5 5
27 26 26 25 25 25 25 25 24 22 22 22 22 21 20 19 19 18 18 19 20 19 19 19 18 18 16 16 15 15 15 14 13 13 11 10 11 10 9 9 9 8 8 8 8 8 9 9 10 10 9 8 8 8 7 6 7 7 7 7 6 5 5
26 26 27 25 25 25 25 25 24 23 22 21 21 21 20 20 19 19 18 18 19 19 20 20 19 18 17 16 15 15 15 15 13 12 11 10 10 10 9 9 9 8 8 8 8 8 8 8 9 10 10 10 9 8 7 7 7 7 7 7 6 6 6
28 27 27 27 26 25 25 26 25 24 22 21 20 20 20 21 20 20 19 18 19 19 19 19 19 19 18 17 16 15 15 15 14 13 12 11 11 10 10 9 9 9 8 8 8 9 10 9 8 9 10 10 10 8 8 8 7 7 8 7 7 7 6
26 27 27 27 27 27 26 26 26 25 22 21 20 20 20 21 21 21 20 19 19 19 19 19 19 19 18 17 16 16 15 15 15 15 14 13 12 11 11 10 10 9 9 9 8 9 10 10 8 8 9 9 9 8 8 8 8 8 8 8 8 8 7
23 24 26 26 26 28 26 25 25 25 22 21 21 20 20 21 21 21 20 20 20 19 20 20 19 19 19 18 17 16 16 16 16 16 15 14 14 13 12 12 11 10 10 10 10 9 9 9 9 9 9 9 9 9 8 9 9 9 9 9 9 9 9
23 23 24 23 25 28 28 25 24 24 23 21 21 21 21 20 21 21 20 20 20 20 20 20 19 19 19 18 18 17 17 17 17 17 16 15 15 14 13 13 13 12 12 11 11 10 9 9 9 9 10 9 9 9 9 10 11 9 9 9 9 9 9
23 24 23 22 25 29 30 27 24 23 22 22 21 21 22 21 21 20 20 21 20 20 20 20 20 19 19 19 18 18 17 17 17 17 17 16 15 15 15 14 14 14 14 12 11 11 10 10 10 10 11 10 10 11 11 12 12 9 9 10 10 9 8
20 22 22 22 23 27 29 26 24 23 23 22 21 21 21 21 21 20 20 20 20 20 20 19 19 20 20 19 18 18 18 18 18 17 17 17 16 16 16 15 15 15 14 13 12 11 11 11 10 11 11 10 11 12 12 12 11 9 10 11 10 10 9
19 19 20 19 20 24 25 24 23 24 25 24 21 20 20 21 21 20 20 20 20 21 21 19 18 20 21 20 19 19 19 18 18 18 18 17 17 17 16 15 15 15 15 14 13 12 12 11 11 12 12 11 11 11 10 11 11 10 10 10 10 10 9
19 20 20 19 18 20 22 24 25 25 24 23 20 17 18 20 21 20 21 22 20 21 22 21 20 21 21 20 19 19 19 19 18 18 18 18 17 17 16 16 15 14 15 14 13 12 12 11 12 12 11 11 11 11 11 11 11 11 11 11 11 10 10
18 20 21 20 18 18 19 23 27 27 26 25 23 18 16 17 19 20 21 22 20 20 22 22 22 23 22 20 20 19 19 20 19 19 18 18 18 17 16 16 16 15 14 13 13 12 12 12 12 11 11 11 11 11 11 11 11 12 12 11 12 11 10
15 17 18 19 19 18 17 18 23 25 26 27 26 23 19 18 18 18 20 21 21 20 21 21 22 24 23 21 20 20 20 20 20 19 18 18 19 18 17 16 16 16 15 13 13 13 13 13 12 12 12 12 12 11 12 12 12 12 13 12 12 12 12
15 16 16 17 18 19 17 17 18 19 21 23 25 25 23 20 18 18 19 20 20 19 19 20 21 22 23 22 21 21 21 21 21 20 19 18 18 19 18 16 15 15 15 15 14 14 14 14 13 12 12 13 13 12 12 12 12 13 13 12 11 12 12
14 16 16 16 17 18 18 18 17 16 17 18 21 24 25 23 22 21 20 19 18 18 18 18 19 20 21 21 21 22 23 22 22 22 22 20 19 20 20 18 16 15 15 16 16 15 14 14 14 14 13 13 14 13 12 12 14 16 15 13 12 12 12
12 14 15 15 16 17 17 17 18 18 18 17 17 21 24 24 24 23 22 20 18 17 18 17 17 18 20 21 21 21 23 24 23 23 24 22 21 21 21 19 18 17 17 17 17 17 16 15 15 15 14 13 13 13 12 15 17 17 15 14 15 14 13
12 12 12 12 12 13 14 15 16 17 18 18 17 17 19 20 20 20 20 19 18 19 21 22 21 19 19 20 21 22 24 25 25 25 24 23 22 22 21 21 21 21 20 18 17 18 17 16 16 16 15 14 14 13 14 17 18 17 16 17 17 17 16
14 12 11 11 11 11 11 11 11 13 14 14 14 14 16 16 15 16 16 17 18 19 20 23 25 24 21 20 20 22 24 25 26 26 23 22 23 23 21 22 22 22 22 20 19 18 17 16 16 16 16 16 14 13 16 18 18 18 18 19 20 19 19
14 13 11 11 11 11 11 10 9 9 10 10 9 10 11 12 11 12 14 15 16 16 16 17 19 22 24 23 21 21 22 23 25 24 21 21 22 22 22 23 22 22 22 21 21 20 19 17 16 16 17 16 14 15 19 19 18 19 20 20 21 20 19
14 15 13 12 13 12 11 9 8 8 8 9 8 8 7 8 10 15 18 18 16 14 15 15 15 16 20 21 20 20 21 21 21 19 18 18 18 19 20 20 21 21 21 20 21 21 20 19 17 15 16 15 14 15 20 21 19 20 21 20 19 18 17
13 16 14 12 12 11 9 8 9 10 10 8 8 6 5 6 8 13 18 20 18 15 14 15 15 16 17 18 19 19 19 20 19 18 19 19 18 18 18 19 20 21 20 19 20 20 21 20 18 16 16 14 15 17 21 22 21 20 20 18 16 15 16
12 15 14 11 10 10 10 10 10 11 10 10 10 7 5 4 3 3 7 11 13 14 15 17 18 17 17 19 19 17 17 17 18 19 20 19 19 19 20 20 21 22 21 21 20 21 23 23 20 19 18 17 18 21 21 20 19 18 17 17 16 16 16
12 13 12 11 10 9 10 9 9 8 8 9 9 8 6 5 4 4 4 5 6 9 13 16 18 17 18 20 20 18 17 16 18 19 18 17 18 18 19 20 21 22 22 22 22 23 26 24 20 20 20 19 20 22 22 20 18 17 17 17 17 17 17
13 12 11 11 10 10 10 9 9 8 8 7 7 7 7 6 5 5 6 6 6 6 5 7 10 11 14 17 19 21 20 18 20 21 19 17 16 16 16 17 18 20 22 23 24 24 24 22 21 23 24 22 21 22 22 19 17 17 17 18 18 17 16
14 13 14 13 12 11 12 11 11 10 9 8 8 7 8 8 8 7 7 9 9 9 10 10 9 9 8 9 12 16 18 17 18 19 19 19 17 16 16 16 17 21 23 23 24 24 21 18 19 22 23 22 22 21 18 15 14 15 16 16 16 15 14
15 15 15 14 13 13 13 13 12 11 10 9 9 8 8 9 10 9 8 9 9 9 11 11 12 12 11 10 8 9 12 12 12 14 15 16 15 14 14 15 15 17 19 20 21 23 21 16 16 18 19 19 18 16 14 12 11 11 11 10 10 9 10
15 15 15 14 13 13 14 14 13 12 11 10 9 8 8 9 10 9 9 10 11 12 11 10 11 15 14 13 12 12 13 15 15 15 14 14 14 14 14 14 14 14 14 14 14 16 17 15 14 15 15 14 12 11 10 9 7 7 6 6 6 7 7
16 14 13 12 12 13 14 14 13 12 12 11 10 9 9 9 9 9 9 10 12 14 14 12 12 13 14 13 13 14 15 16 15 14 15 16 16 16 16 16 15 14 13 11 10 10 10 10 10 10 10 8 7 7 6 5 3 3 3 3 3 4 4
16 14 13 12 13 14 14 14 14 12 11 10 10 10 9 9 9 10 10 9 9 9 11 12 12 12 12 12 12 13 15 15 14 13 15 17 17 16 16 16 15 14 13 11 10 9 9 8 8 8 8 7 6 6 5 3 3 2 1 2 1 1 0
12 12 12 12 13 14 13 13 14 12 10 10 10 9 9 9 9 10 10 10 9 8 8 10 11 12 13 13 11 12 13 14 12 12 14 16 16 15 14 13 13 13 11 10 10 9 8 8 7 8 8 7 5 6 5 4 3 2 1 1 2 2 1
12 12 12 11 12 12 12 11 11 10 10 10 9 8 8 7 8 10 11 11 10 9 9 10 10 11 12 12 11 11 11 11 10 10 10 11 11 12 12 10 10 10 10 9 9 8 7 5 4 5 5 4 4 4 4 3 3 3 3 3 2 1 1
12 13 12 12 12 12 11 10 10 9 9 9 8 7 7 6 6 8 9 9 8 7 9 11 11 11 11 11 11 11 10 9 9 9 8 7 6 6 6 6 6 9 10 10 10 9 8 6 4 4 4 2 2 2 3 3 3 3 4 3 2 2 2
13 14 14 14 13 12 12 11 11 10 9 8 8 7 7 6 6 6 6 5 5 5 7 9 10 9 10 10 9 9 9 8 10 10 9 8 8 7 7 6 7 9 11 11 11 12 12 10 8 7 5 4 4 4 4 4 4 2 1 0 2 4 5
16 17 17 16 14 12 12 11 11 11 10 9 8 7 8 8 6 5 4 4 4 5 6 7 8 8 8 9 9 9 9 9 9 9 8 7 9 11 10 8 7 9 10 10 11 13 13 13 13 12 10 10 10 8 7 6 7 4 2 2 4 5 5
20 21 20 19 16 12 12 12 11 12 12 11 9 8 7 7 7 6 4 3 4 4 6 7 8 8 8 8 7 8 8 8 8 8 7 7 7 9 9 7 6 7 9 9 10 12 13 14 15 15 14 14 13 12 12 12 9 5 3 4 4 4 5
23 23 21 19 18 16 12 10 10 11 11 11 10 9 7 5 5 6 5 4 4 5 6 7 8 8 8 7 7 8 8 7 7 8 8 7 7 7 8 8 8 9 10 10 11 12 12 13 14 14 12 12 13 13 15 14 11 7 5 5 5 4 5
22 23 20 18 18 19 16 10 7 9 9 9 10 9 7 6 5 5 5 4 3 4 6 7 7 8 7 7 8 10 9 8 8 8 7 7 6 6 6 6 7 9 10 10 11 11 11 11 11 11 10 10 11 12 12 12 10 8 7 6 5 4 4
Wind_Direction
188 183 183 181 178 181 180 180 182 181 179 178 179 180 178 178 176 173 177 180 181 185 186 186 186 188 188 187 187 185 184 189 188 186 184 178 177 180 176 177 182 180 183 189 187 186 189 190 188 190 205 209 205 211 215 214 209 204 211 196 184 200 186
188 183 182 181 179 182 181 180 183 182 180 180 180 182 181 181 179 176 179 181 182 185 188 187 187 187 188 189 190 188 185 186 188 186 184 185 186 183 176 180 186 186 183 181 184 190 196 198 193 193 203 204 205 212 211 213 215 204 206 209 199 210 207
187 182 181 182 181 182 181 180 183 183 182 183 182 184 185 183 182 180 180 181 181 184 187 189 188 186 187 189 191 192 189 187 190 189 185 189 191 185 185 187 185 190 189 184 188 192 197 202 199 200 200 192 199 214 210 210 219 210 208 212 205 218 227
188 182 179 182 182 183 182 180 184 185 184 186 185 186 186 185 185 184 183 183 182 183 185 188 189 187 187 188 190 194 192 188 190 188 185 188 189 186 192 195 187 188 192 193 193 186 188 202 204 204 201 192 196 208 208 209 215 215 215 215 210 222 234
187 181 177 181 181 182 183 181 185 188 187 187 187 187 187 186 188 188 187 185 185 186 184 185 188 189 190 189 188 192 194 192 190 187 186 188 189 189 193 196 192 192 192 193 196 192 192 198 201 208 208 200 200 205 209 211 211 216 218 214 214 222 235
185 176 174 179 179 181 182 182 185 188 190 189 187 189 188 188 190 190 189 188 187 187 186 184 186 189 192 191 190 192 192 194 193 190 189 190 191 192 195 197 195 196 195 191 194 203 205 201 196 206 210 204 204 206 211 213 209 215 223 217 218 221 222
185 175 177 179 178 180 180 181 185 187 191 191 187 190 190 189 191 190 190 190 188 187 187 186 186 188 191 191 192 194 193 195 196 193 192 193 193 192 194 198 196 195 197 193 194 202 209 207 199 203 207 201 206 207 210 218 211 212 225 224 224 226 219
185 180 181 178 176 178 177 178 185 188 191 191 188 190 191 190 192 191 190 189 189 189 189 189 188 190 192 191 192 195 195 196 198 196 195 195 197 195 195 198 197 196 196 197 199 197 200 206 202 205 205 199 208 207 205 224 223 213 222 229 229 230 226
185 184 183 179 181 182 180 180 188 192 191 192 191 190 192 193 192 192 190 187 189 191 191 192 192 192 194 194 194 196 196 198 199 200 199 198 199 199 198 199 198 197 196 196 201 198 197 202 200 208 209 199 210 213 207 223 229 215 219 231 233 231 225
177 180 180 182 186 187 185 185 189 194 194 194 193 191 194 197 194 192 190 188 190 192 192 194 194 194 196 196 196 197 198 200 199 201 202 202 204 204 203 203 201 200 198 196 198 198 199 198 196 213 220 206 212 222 218 223 228 219 221 231 234 234 227
170 173 177 183 186 185 187 186 186 192 195 195 194 193 197 199 197 195 191 189 192 194 195 195 193 193 196 197 197 198 201 203 201 203 205 204 206 208 208 208 206 204 203 199 198 200 202 199 197 212 224 213 212 225 226 226 228 223 222 229 235 237 234
169 172 177 180 175 172 176 179 179 182 184 186 187 190 196 199 198 197 193 193 196 198 198 198 196 197 198 198 198 199 202 204 204 205 207 206 209 210 210 211 211 209 207 200 198 202 205 204 203 210 219 214 209 220 227 227 227 226 223 223 231 236 236
166 171 176 177 171 166 168 174 177 178 178 180 181 181 183 190 194 193 192 193 195 197 198 196 197 203 206 203 201 201 202 203 205 207 208 208 209 210 211 212 211 212 212 203 201 206 207 207 207 210 217 218 213 216 226 227 224 229 231 226 227 230 232
167 171 175 177 177 176 175 176 181 185 188 191 192 190 182 179 183 185 187 189 190 194 199 197 196 204 212 210 206 206 205 203 204 205 207 209 210 209 211 213 211 213 214 209 208 211 211 210 211 211 216 222 219 214 224 232 230 233 239 235 230 230 230
171 176 181 182 182 182 184 185 186 189 195 201 207 207 199 191 189 186 187 192 195 197 201 202 202 208 216 214 209 210 210 206 205 205 204 206 209 209 209 211 211 211 211 210 211 213 215 215 214 215 217 221 222 217 220 231 233 233 238 238 235 237 238
177 175 179 185 186 186 187 189 189 189 191 197 209 215 215 214 214 210 203 199 200 201 202 205 208 214 219 218 212 214 215 211 209 210 207 204 206 208 208 209 209 210 211 211 212 213 215 216 214 217 219 221 225 224 220 227 233 235 237 237 239 241 239
183 173 173 179 183 185 187 190 192 194 194 193 201 213 217 219 220 219 214 207 205 207 210 211 212 213 219 219 213 212 216 213 210 213 213 210 209 210 209 206 206 210 211 210 211 212 213 214 214 216 219 221 225 227 224 228 235 239 240 239 245 249 242
174 165 161 163 168 172 179 185 189 192 195 196 199 206 212 214 215 215 216 216 218 221 223 223 221 215 215 217 212 209 214 213 210 213 214 213 214 214 212 208 206 209 209 205 206 211 212 213 216 215 216 221 226 230 233 235 236 239 240 241 246 250 246
154 146 145 150 150 151 159 168 174 177 181 187 191 195 202 208 210 213 216 220 224 228 229 228 226 221 216 216 213 213 217 217 215 216 215 212 212 211 212 215 214 215 216 213 212 215 214 214 218 220 220 221 223 229 235 237 238 238 239 242 247 251 250
143 137 141 148 147 145 149 153 157 163 168 175 181 189 199 205 205 208 210 211 214 220 223 223 222 222 221 220 217 216 218 218 214 213 212 212 212 209 210 216 218 219 222 223 222 223 220 216 215 219 222 219 216 226 233 233 235 238 239 243 250 252 253
143 136 134 139 141 143 147 149 153 162 172 180 185 190 198 205 210 214 213 210 207 209 215 217 218 218 219 220 218 217 219 221 216 208 205 211 217 218 216 217 218 220 222 224 225 226 225 222 215 214 221 217 208 220 232 231 230 236 240 244 250 253 251
145 136 131 131 134 136 138 139 144 148 147 147 157 168 177 190 211 220 220 218 215 212 211 212 212 212 210 211 213 215 220 226 227 221 216 218 224 228 227 225 225 225 226 228 229 226 224 222 215 209 209 202 198 213 229 232 232 236 241 244 248 249 248
132 125 121 123 130 135 138 139 140 140 134 132 140 143 140 150 164 188 209 215 216 215 216 215 214 213 212 212 211 212 215 217 221 225 226 225 227 229 229 229 228 228 229 231 233 232 227 219 209 204 199 190 194 211 225 231 233 236 240 244 247 246 245
111 111 114 119 127 133 137 138 138 137 135 137 141 134 126 130 119 115 141 166 182 202 217 221 220 220 223 222 217 214 213 210 211 218 220 219 222 225 225 226 228 228 229 231 232 234 233 223 207 201 202 197 200 214 226 233 237 241 243 245 248 248 247
104 112 114 115 125 133 133 133 135 135 136 138 134 128 132 137 126 117 117 117 126 141 165 189 198 205 217 224 222 220 219 216 215 219 219 216 216 219 220 223 226 227 227 227 226 226 229 226 211 201 203 206 211 221 229 233 237 244 247 250 252 253 251
111 115 113 111 115 117 117 124 127 123 124 127 122 125 139 144 136 124 115 116 121 117 117 128 136 142 162 186 202 211 211 210 212 215 216 213 208 203 204 208 214 219 220 221 220 219 219 218 210 202 202 207 213 222 229 233 237 244 248 253 255 253 248
116 114 111 111 109 107 109 114 114 111 109 109 108 115 129 136 134 125 118 123 123 112 115 127 127 123 125 127 137 163 173 173 175 183 191 196 193 188 193 200 204 211 215 215 213 213 211 206 199 198 199 202 208 217 226 233 237 241 247 252 250 244 240
115 113 109 109 111 114 114 111 107 106 105 101 101 107 116 124 126 120 118 124 117 106 105 111 118 123 123 117 119 130 135 134 137 146 155 162 164 162 166 174 180 185 193 199 197 197 197 194 192 194 194 195 201 208 215 223 229 234 240 242 237 231 230
113 115 113 113 116 119 118 115 114 112 108 103 99 100 103 113 117 109 109 115 113 110 110 106 108 120 125 121 116 114 116 119 122 128 135 139 142 142 142 147 154 158 164 171 170 169 171 170 171 176 176 174 173 175 183 193 200 215 226 225 229 228 221
118 116 117 119 121 120 118 115 111 110 108 102 96 94 96 106 114 109 103 104 105 110 118 120 120 123 127 128 119 108 110 115 114 117 126 131 131 132 132 133 136 136 138 141 141 142 142 137 133 136 139 139 138 139 138 133 127 122 106 95 86 52 86
126 123 124 125 122 117 114 112 112 111 104 92 86 87 89 96 107 107 101 101 103 102 106 116 124 123 122 126 127 121 120 123 122 120 124 128 129 126 122 121 124 122 117 118 121 120 116 117 122 127 128 132 142 142 132 126 129 119 89 65 44 33 11
120 124 125 126 123 115 108 111 115 110 96 85 79 78 83 96 108 106 100 102 108 111 110 114 119 121 120 121 127 128 126 126 131 131 128 131 132 126 121 119 118 116 116 119 119 114 105 106 127 152 162 174 194 192 178 179 208 225 225 232 248 263 302
130 130 122 117 119 118 110 105 103 98 93 91 89 84 82 87 97 101 100 104 113 122 127 126 125 123 125 127 128 127 124 125 132 135 128 123 124 125 131 133 127 130 137 138 131 127 128 130 139 155 158 153 165 182 168 164 193 219 210 210 235 255 274
161 153 136 119 111 110 110 108 102 100 99 93 91 96 101 100 100 103 105 116 133 144 141 137 137 136 136 137 136 135 137 135 131 126 122 125 133 135 135 140 151 158 160 159 152 144 142 143 142 138 134 145 157 145 132 153 194 222 206 250 302 299 296
174 166 151 139 127 110 103 104 103 100 96 88 83 93 104 106 105 105 112 131 154 164 160 152 150 150 147 145 145 148 149 143 135 130 129 141 159 161 152 151 167 177 179 181 175 163 156 155 155 155 162 176 180 168 162 197 235 262 285 283 288 292 292
170 165 157 158 157 133 100 92 95 99 98 92 86 87 95 108 116 118 121 138 154 168 172 165 160 162 159 156 157 156 152 147 146 142 133 133 156 174 177 176 171 168 174 183 183 177 173 172 172 174 180 187 190 185 187 208 238 267 273 268 278 283 284
169 166 160 162 164 151 126 100 88 91 96 94 92 87 77 85 111 113 104 116 147 170 178 172 170 172 168 165 168 166 161 158 154 147 141 138 144 165 180 181 172 167 171 177 181 182 184 187 190 192 194 197 199 199 203 216 239 262 264 266 279 287 291
173 173 167 162 157 151 147 135 90 68 70 78 92 98 86 71 80 92 88 91 125 164 175 175 178 180 179 182 181 173 165 160 158 156 155 152 145 145 158 171 180 183 181 179 182 187 191 197 202 207 207 203 201 204 211 224 241 256 260 266 280 291 303